Simultaneous Nadir Overpasses (SNOs) Predictions

Prediction of SNOs between METOP-B and TERRA Satellite Orbit:

Table of predicted SNOs for the next 14.0 days since TLE Epoch: 7/21/2013
Index Date (METOP-B) Time (METOP-B) Lat,Lon (METOP-B) SZA (METOP-B ) Date (TERRA) Time (TERRA) Lat,Lon (TERRA) SZA (TERRA ) Distance(km) Time Diff (sec)
1 07/23/2013 12:01:46 -81.30,-133.56 116.00 07/23/2013 12:02:13 -81.30,-133.47 115.98 1.55 27
2 07/23/2013 12:52:25 81.31, 34.39 64.09 07/23/2013 12:51:39 81.31, 34.34 64.06 0.76 46
3 07/26/2013 07:36:07 -81.30, -67.04 115.39 07/26/2013 07:36:42 -81.29, -67.17 115.39 2.26 35
4 07/26/2013 08:26:46 81.31, 100.84 64.69 07/26/2013 08:26:08 81.30, 100.65 64.65 3.32 38
5 07/29/2013 03:10:29 -81.29, -0.94 114.78 07/29/2013 03:11:17 -81.29, -0.84 114.75 1.77 48
6 07/
